CW5478 Weather Reports


time (UTC)temp
C
wind
direction
speed
KPH
gust
KPH
rain 1hr
cm
rain 24hr
cm
rain mn
cm
humidity
%
barometer
mb
20260510214303 16 60 8.0 20.9 0.00 0.00 0.00 33 1029.1
20260510213803 16 73 11.3 20.9 0.00 0.00 0.00 34 1029.1
20260510213303 16 348 6.4 16.1 0.00 0.00 0.00 35 1029.1
20260510212803 16 37 9.7 22.5 0.00 0.00 0.00 35 1029.1
20260510212306 15 9 14.5 22.5 0.00 0.00 0.00 36 1029.1
20260510211803 15 18 9.7 19.3 0.00 0.00 0.00 37 1029.1
20260510210302 15 90 14.5 22.5 0.00 0.00 0.00 38 1029.1
20260510205802 15 0 4.8 12.9 0.00 0.00 0.00 37 1029.1
20260510205306 15 15 8.0 14.5 0.00 0.00 0.00 36 1029.4
20260510204803 16 45 14.5 22.5 0.00 0.00 0.00 37 1029.4
20260510204303 16 114 8.0 12.9 0.00 0.00 0.00 36 1029.4
20260510203803 15 0 9.7 20.9 0.00 0.00 0.00 37 1029.4
20260510203303 15 7 14.5 19.3 0.00 0.00 0.00 39 1029.4
20260510202306 15 45 6.4 12.9 0.00 0.00 0.00 36 1029.4
20260510201803 14 352 8.0 20.9 0.00 0.00 0.00 36 1029.4
20260510201303 14 43 16.1 20.9 0.00 0.00 0.00 39 1029.4
20260510200802 14 315 6.4 19.3 0.00 0.00 0.00 39 1029.4
20260510200303 15 40 14.5 22.5 0.00 0.00 0.00 39 1029.4
20260510195803 14 5 11.3 22.5 0.00 0.00 0.00 42 1029.4
20260510195306 14 21 9.7 25.7 0.00 0.00 0.00 45 1029.4
20260510194803 13 67 8.0 19.3 0.00 0.00 0.00 47 1029.7
20260510194303 14 9 8.0 20.9 0.00 0.00 0.00 48 1029.4
20260510193803 14 31 11.3 16.1 0.00 0.00 0.00 49 1029.5
20260510193303 13 0 8.0 14.5 0.00 0.00 0.00 50 1029.4
20260510192803 13 0 11.3 16.1 0.00 0.00 0.00 51 1029.4
20260510191803 12 57 8.0 19.3 0.00 0.00 0.00 52 1029.4
20260510191303 12 116 9.7 19.3 0.00 0.00 0.00 52 1029.4
20260510190803 12 45 8.0 14.5 0.00 0.00 0.00 52 1029.5
20260510190302 12 126 3.2 12.9 0.00 0.00 0.00 53 1029.7
20260510185803 12 45 6.4 12.9 0.00 0.00 0.00 53 1029.7
20260510185305 12 69 12.9 19.3 0.00 0.00 0.00 52 1029.7
20260510184803 12 3 6.4 12.9 0.00 0.00 0.00 51 1029.8
20260510184303 12 0 3.2 9.7 0.00 0.00 0.00 52 1029.8
20260510183803 12 30 9.7 14.5 0.00 0.00 0.00 53 1029.8
20260510183303 12 19 8.0 19.3 0.00 0.00 0.00 54 1029.8
20260510182803 12 14 8.0 20.9 0.00 0.00 0.00 54 1029.8
20260510182306 12 43 4.8 14.5 0.00 0.00 0.00 54 1029.8
20260510181803 12 73 8.0 12.9 0.00 0.00 0.00 56 1029.8
20260510181303 11 25 11.3 19.3 0.00 0.00 0.00 57 1029.8
20260510180803 11 90 8.0 19.3 0.00 0.00 0.00 56 1029.8
20260510180303 11 45 4.8 9.7 0.00 0.00 0.00 56 1030.1
20260510175803 11 64 8.0 16.1 0.00 0.00 0.00 56 1029.8
20260510175306 11 45 9.7 16.1 0.00 0.00 0.00 56 1029.8
20260510174304 11 351 11.3 22.5 0.00 0.00 0.00 56 1030.1
20260510173803 11 43 4.8 19.3 0.00 0.00 0.00 57 1030.1
20260510173303 11 0 6.4 12.9 0.00 0.00 0.00 58 1029.8
20260510172803 11 49 9.7 12.9 0.00 0.00 0.00 59 1030.1
20260510172306 10 11 9.7 16.1 0.00 0.00 0.00 60 1030.1
20260510171803 10 79 11.3 22.5 0.00 0.00 0.00 60 1030.1
20260510171303 10 358 9.7 16.1 0.00 0.00 0.00 60 1030.1
20260510170803 10 28 11.3 19.3 0.00 0.00 0.00 60 1030.1
20260510170303 10 135 8.0 12.9 0.00 0.00 0.00 60 1029.8
20260510165803 10 126 8.0 11.3 0.00 0.00 0.00 60 1030.1
20260510165306 9 90 8.0 14.5 0.00 0.00 0.00 60 1030.1
20260510164803 9 270 4.8 11.3 0.00 0.00 0.00 60 1030.1
20260510164303 9 163 8.0 11.3 0.00 0.00 0.00 61 1029.8
20260510163804 8 180 1.6 9.7 0.00 0.00 0.00 63 1030.1
20260510162803 8 81 4.8 12.9 0.00 0.00 0.00 64 1030.1
20260510162306 8 90 8.0 12.9 0.00 0.00 0.00 64 1030.1
20260510161303 7 180 1.6 4.8 0.00 0.00 0.00 65 1030.1
20260510155305 7 0 4.8 11.3 0.00 0.00 0.00 68 1030.1
20260510154803 7 45 8.0 9.7 0.00 0.00 0.00 68 1029.8
20260510154303 6 0 1.6 8.0 0.00 0.00 0.00 69 1030.1
20260510153803 6 45 8.0 11.3 0.00 0.00 0.00 69 1030.1
20260510153303 6 6 6.4 9.7 0.00 0.00 0.00 70 1030.1
20260510152803 6 36 9.7 12.9 0.00 0.00 0.00 70 1029.8
20260510152306 6 30 4.8 9.7 0.00 0.00 0.00 71 1029.8
20260510151304 6 90 12.9 16.1 0.00 0.00 0.00 71 1029.8
20260510150803 6 90 9.7 12.9 0.00 0.00 0.00 71 1029.8
20260510150303 6 148 6.4 12.9 0.00 0.00 0.00 72 1029.8
20260510145802 6 135 8.0 12.9 0.00 0.00 0.00 73 1029.8
20260510145306 6 135 11.3 16.1 0.00 0.00 0.00 73 1029.4
20260510144303 5 128 9.7 12.9 0.00 0.00 0.00 75 1029.4
20260510143804 5 171 11.3 16.1 0.00 0.00 0.00 76 1029.4
20260510143304 5 135 12.9 16.1 0.00 0.00 0.00 76 1029.4
20260510142306 5 135 16.1 20.9 0.00 0.00 0.00 77 1029.4
20260510141803 5 134 12.9 19.3 0.00 0.00 0.00 78 1029.4
20260510141303 5 135 14.5 19.3 0.00 0.00 0.00 79 1029.4
20260510140803 4 127 11.3 16.1 0.00 0.00 0.00 80 1029.4
20260510140303 4 135 14.5 19.3 0.00 0.00 0.00 81 1029.4
20260510135803 4 135 12.9 16.1 0.00 0.00 0.00 82 1029.1
20260510135306 3 130 12.9 19.3 0.00 0.00 0.00 84 1029.1
20260510134803 3 118 14.5 19.3 0.00 0.00 0.00 85 1029.1
20260510134304 3 112 12.9 19.3 0.00 0.00 0.00 85 1029.1
20260510133803 3 90 11.3 19.3 0.00 0.00 0.00 85 1029.1
20260510132803 3 90 12.9 20.9 0.00 0.00 0.00 84 1029.1
20260510131804 3 130 9.7 16.1 0.00 0.00 0.00 84 1029.1
20260510131304 3 115 11.3 16.1 0.00 0.00 0.00 84 1029.1
20260510130304 3 135 12.9 16.1 0.00 0.00 0.00 83 1028.7
20260510125803 3 135 8.0 12.9 0.00 0.00 0.00 83 1028.7
20260510125306 3 107 11.3 16.1 0.00 0.00 0.00 83 1028.7
20260510124802 3 135 11.3 19.3 0.00 0.00 0.00 83 1028.7
20260510124303 3 116 11.3 16.1 0.00 0.00 0.00 83 1028.7
20260510123303 3 135 11.3 14.5 0.00 0.00 0.00 82 1028.4
20260510122803 3 135 9.7 12.9 0.00 0.00 0.00 82 1028.4
20260510122306 3 135 4.8 11.3 0.00 0.00 0.00 82 1028.4
20260510121803 3 180 3.2 8.0 0.00 0.00 0.00 82 1028.4
20260510121304 3 135 4.8 11.3 0.00 0.00 0.00 82 1028.4
20260510120803 3 135 8.0 11.3 0.00 0.00 0.00 81 1028.4
20260510120303 4 135 8.0 11.3 0.00 0.00 0.00 81 1028.4
20260510115803 4 135 4.8 8.0 0.00 0.00 0.00 80 1028.4
20260510115306 4 135 3.2 4.8 0.00 0.00 0.00 80 1028.4
20260510114803 4 180 4.8 4.8 0.00 0.00 0.00 80 1028.4
20260510114303 4 180 4.8 8.0 0.00 0.00 0.00 80 1028.4
20260510113303 4 180 4.8 9.7 0.00 0.00 0.00 80 1028.4
20260510112803 3 180 8.0 9.7 0.00 0.00 0.00 81 1028.4
20260510112305 3 180 6.4 11.3 0.00 0.00 0.00 81 1028.4
20260510111803 3 179 9.7 12.9 0.00 0.00 0.00 81 1028.4
20260510110803 3 180 11.3 12.9 0.00 0.00 0.00 82 1028.4
20260510110304 3 180 9.7 12.9 0.00 0.00 0.00 82 1028.4
20260510105803 3 180 11.3 14.5 0.00 0.00 0.00 82 1028.4
20260510105306 3 157 11.3 16.1 0.00 0.00 0.00 82 1028.4
20260510104804 3 180 11.3 16.1 0.00 0.00 0.00 82 1028.4
20260510103805 3 174 11.3 14.5 0.00 0.00 0.00 81 1028.4
20260510102305 3 180 12.9 19.3 0.00 0.00 0.00 81 1028.4
20260510101303 3 169 14.5 20.9 0.00 0.00 0.00 81 1028.4
20260510095805 3 144 16.1 24.1 0.00 0.00 0.00 82 1028.4
20260510095305 3 134 14.5 22.5 0.00 0.00 0.00 82 1028.4
20260510094803 4 135 16.1 24.1 0.00 0.00 0.00 81 1028.4
20260510094303 4 134 16.1 24.1 0.00 0.00 0.00 81 1028.4
20260510093804 4 132 17.7 24.1 0.00 0.00 0.00 81 1028.1
20260510093303 4 128 16.1 22.5 0.00 0.00 0.00 81 1028.1
20260510092803 4 118 14.5 24.1 0.00 0.00 0.00 81 1028.1
20260510092306 4 135 17.7 24.1 0.00 0.00 0.00 80 1028.1
20260510091803 4 131 17.7 25.7 0.00 0.00 0.00 78 1028.1
20260510091303 5 110 17.7 24.1 0.00 0.00 0.00 77 1027.8
20260510090804 5 133 16.1 22.5 0.00 0.00 0.00 76 1027.7
20260510085804 5 90 4.8 8.0 0.00 0.00 0.00 75 1027.7
20260510085306 5 135 0.0 1.6 0.00 0.00 0.00 75 1027.7
20260510084803 5 135 0.0 1.6 0.00 0.00 0.00 74 1027.7
20260510084303 5 135 0.0 1.6 0.00 0.00 0.00 74 1027.4
20260510083804 5 135 0.0 1.6 0.00 0.00 0.00 74 1027.4
20260510083303 5 135 4.8 9.7 0.00 0.00 0.00 74 1027.4
20260510082804 5 135 8.0 11.3 0.00 0.00 0.00 73 1027.4
20260510082306 5 135 11.3 19.3 0.00 0.00 0.00 73 1027.4
20260510081803 5 135 14.5 22.5 0.00 0.00 0.00 72 1027.4
20260510081303 5 145 9.7 19.3 0.00 0.00 0.00 72 1027.4
20260510080804 5 135 8.0 9.7 0.00 0.00 0.00 72 1027.4
20260510080304 5 135 4.8 8.0 0.00 0.00 0.00 72 1027.4
20260510075804 5 135 4.8 8.0 0.00 0.00 0.00 72 1027.4
20260510075306 5 135 8.0 9.7 0.00 0.00 0.00 72 1027.4
20260510074804 5 135 4.8 9.7 0.00 0.00 0.00 72 1027.4
20260510074304 5 135 1.6 3.2 0.00 0.00 0.00 71 1027.4
20260510073803 5 180 1.6 1.6 0.00 0.00 0.00 71 1027.4
20260510072803 5 180 1.6 4.8 0.00 0.00 0.00 71 1027.4
20260510072305 5 180 4.8 9.7 0.00 0.00 0.00 71 1027.4
20260510070804 5 273 8.0 9.7 0.00 0.00 0.00 70 1027.4
20260510070304 5 315 9.7 12.9 0.00 0.00 0.00 70 1027.4
20260510065803 5 315 11.3 16.1 0.00 0.00 0.00 71 1027.4
20260510065306 5 315 9.7 12.9 0.00 0.00 0.00 71 1027.4
20260510064303 5 311 11.3 16.1 0.00 0.00 0.00 71 1027.4
20260510063304 5 315 9.7 16.1 0.00 0.00 0.00 70 1027.4
20260510062803 5 279 11.3 14.5 0.00 0.00 0.00 70 1027.4
20260510062306 5 294 9.7 11.3 0.00 0.00 0.00 69 1027.4
20260510061803 5 302 9.7 14.5 0.00 0.00 0.00 69 1027.4
20260510061304 6 292 9.7 12.9 0.00 0.00 0.00 68 1027.4
20260510060857 6 300 11.3 19.3 0.00 0.00 0.00 67 1027.4
20260510060304 6 315 11.3 19.3 0.00 0.00 0.00 67 1027.4
20260510055804 6 315 14.5 16.1 0.00 0.00 0.00 66 1027.4
20260510055306 6 305 11.3 19.3 0.00 0.00 0.00 66 1027.4
20260510054804 6 315 12.9 20.9 0.00 0.00 0.00 66 1027.4
20260510054303 7 313 14.5 20.9 0.00 0.00 0.00 65 1027.1
20260510053304 7 315 14.5 22.5 0.00 0.00 0.00 64 1026.7
20260510052803 7 315 11.3 19.3 0.00 0.00 0.00 62 1026.7
20260510051803 8 315 16.1 27.4 0.00 0.00 0.00 54 1026.7
20260510051303 8 315 11.3 20.9 0.00 0.00 0.00 54 1026.7
20260510050803 7 0 8.0 11.3 0.00 0.00 0.00 54 1026.4
20260510050304 8 36 9.7 20.9 0.00 0.00 0.00 50 1026.1
20260510045803 8 0 19.3 25.7 0.00 0.00 0.00 44 1025.7
20260510045306 9 316 9.7 11.3 0.00 0.00 0.00 42 1025.4
20260510044803 8 247 8.0 11.3 0.00 0.00 0.00 42 1025.4
20260510044304 8 225 8.0 11.3 0.00 0.00 0.00 43 1025.0
20260510043804 9 213 4.8 11.3 0.00 0.00 0.00 45 1025.1
20260510043304 9 202 8.0 9.7 0.00 0.00 0.00 43 1025.3
20260510042306 10 225 4.8 8.0 0.00 0.00 0.00 39 1025.0
20260510040804 10 315 1.6 8.0 0.00 0.00 0.00 40 1025.1
20260510035803 10 2 4.8 9.7 0.00 0.00 0.00 39 1025.0
20260510035306 10 270 9.7 16.1 0.00 0.00 0.00 39 1025.0
20260510034804 10 270 9.7 16.1 0.00 0.00 0.00 38 1025.0
20260510034304 10 270 9.7 12.9 0.00 0.00 0.00 39 1024.7
20260510033304 10 270 9.7 11.3 0.00 0.00 0.00 43 1024.7
20260510032306 10 270 9.7 11.3 0.00 0.00 0.00 44 1024.7
20260510031803 10 265 11.3 12.9 0.00 0.00 0.00 43 1024.7
20260510030803 10 225 11.3 12.9 0.00 0.00 0.00 45 1024.7
20260510025804 10 224 9.7 11.3 0.00 0.00 0.00 45 1024.7
20260510025306 10 219 9.7 12.9 0.00 0.00 0.00 43 1024.7
20260510024803 10 222 9.7 12.9 0.00 0.00 0.00 43 1024.7
20260510024303 10 225 11.3 12.9 0.00 0.00 0.00 43 1024.7
20260510023804 10 225 12.9 14.5 0.00 0.00 0.00 45 1024.7
20260510022804 11 247 11.3 12.9 0.00 0.00 0.00 44 1024.6
20260510022306 11 225 11.3 12.9 0.00 0.00 0.00 44 1024.3
20260510021804 11 225 9.7 11.3 0.00 0.00 0.00 42 1024.3
20260510020804 12 270 9.7 11.3 0.00 0.00 0.00 39 1024.3
20260510020303 12 270 9.7 11.3 0.00 0.00 0.00 39 1024.0
20260510015803 12 270 11.3 14.5 0.00 0.00 0.00 39 1024.0
20260510015306 12 270 11.3 12.9 0.00 0.00 0.00 39 1024.0
20260510014803 12 301 9.7 12.9 0.00 0.00 0.00 37 1024.0
20260510014303 13 315 9.7 12.9 0.00 0.00 0.00 34 1024.0
20260510013304 13 270 8.0 9.7 0.00 0.00 0.00 32 1024.0
20260510012804 13 33 3.2 8.0 0.00 0.00 0.00 34 1024.0
20260510011804 13 225 0.0 4.8 0.00 0.00 0.00 34 1023.7
20260510011304 14 225 4.8 8.0 0.00 0.00 0.00 32 1023.7
20260510010805 14 197 1.6 4.8 0.00 0.00 0.00 31 1023.7
20260510010304 15 90 3.2 4.8 0.00 0.00 0.00 29 1023.6
20260510005306 15 90 1.6 16.1 0.00 0.00 0.00 28 1023.3
20260510004804 15 45 9.7 14.5 0.00 0.00 0.00 27 1023.3
20260510004303 15 75 9.7 25.7 0.00 0.00 0.00 26 1023.3
20260510003804 15 92 22.5 35.4 0.00 0.00 0.00 28 1023.0
20260510003303 15 87 8.0 20.9 0.00 0.00 0.00 30 1023.3
20260510002306 16 2 14.5 20.9 0.00 0.00 0.00 23 1023.3
20260510001803 16 0 16.1 27.4 0.00 0.00 0.00 22 1023.3
20260510001304 16 315 27.4 35.4 0.00 0.00 0.00 22 1023.0
20260510000304 16 336 16.1 27.4 0.00 0.00 0.00 19 1023.0
20260509235804 16 315 16.1 22.5 0.00 0.00 0.00 18 1023.0
20260509235307 17 323 14.5 46.7 0.00 0.00 0.00 19 1023.0
20260509234804 17 315 20.9 32.2 0.00 0.00 0.00 21 1022.7
20260509234303 17 324 17.7 25.7 0.00 0.00 0.00 22 1022.7
20260509233304 17 326 8.0 14.5 0.00 0.00 0.00 21 1022.7
20260509232804 17 345 14.5 19.3 0.00 0.00 0.00 20 1022.7
20260509232306 17 322 9.7 16.1 0.00 0.00 0.00 19 1022.7
20260509231804 17 298 11.3 25.7 0.00 0.00 0.00 20 1022.7
20260509231304 17 315 17.7 24.1 0.00 0.00 0.00 20 1022.7
20260509230804 17 315 24.1 33.8 0.00 0.00 0.00 21 1022.7
20260509230304 17 321 20.9 29.0 0.00 0.00 0.00 21 1022.7
20260509225804 18 342 20.9 27.4 0.00 0.00 0.00 20 1022.4
20260509225305 18 315 19.3 24.1 0.00 0.00 0.00 20 1022.7
20260509224803 18 358 14.5 25.7 0.00 0.00 0.00 21 1022.7
20260509224304 17 325 24.1 35.4 0.00 0.00 0.00 21 1022.7
20260509223804 17 1 22.5 33.8 0.00 0.00 0.00 22 1022.4
20260509223304 17 348 24.1 32.2 0.00 0.00 0.00 22 1022.3
20260509222804 17 351 16.1 25.7 0.00 0.00 0.00 21 1022.6
20260509222306 18 336 17.7 25.7 0.00 0.00 0.00 21 1022.7
20260509221803 18 323 22.5 29.0 0.00 0.00 0.00 21 1022.3
20260509221303 18 0 16.1 27.4 0.00 0.00 0.00 21 1022.3
20260509220805 18 325 19.3 25.7 0.00 0.00 0.00 23 1022.4
20260509220304 17 355 19.3 25.7 0.00 0.00 0.00 23 1022.7
20260509215804 17 335 16.1 25.7 0.00 0.00 0.00 23 1022.7
20260509214804 17 321 11.3 24.1 0.00 0.00 0.00 22 1022.7